Theta_e
282 282 283 283 283 282 282 283 283 283 283 283 283 284 284 284 284 285 285 285 284 284 284 284 284 284 285 286 288 288 289 289 289 289 290 290 290 290 290 291 291 291 291 291 292 292 292 292 292 292 292 293 293 293 293 294 294 294 295 295 295 296 296 297 297 298 298 298 300 301 302 303 303 304 304 306 306 308 309 312 315 317 318 319 319 320
282 282 282 283 283 282 282 283 283 283 282 283 283 283 283 283 283 284 284 285 285 284 284 284 284 284 284 285 287 288 289 289 289 289 289 290 290 290 290 290 291 291 291 291 291 291 291 292 292 292 292 292 292 292 293 293 293 294 294 294 295 295 296 296 297 297 298 298 299 300 301 301 302 302 303 304 305 306 307 310 312 315 317 317 318 319
281 281 281 282 282 282 281 283 283 284 283 283 283 283 283 283 283 283 283 284 284 285 285 284 284 284 284 285 286 288 288 289 289 289 289 289 290 290 290 291 291 291 291 291 291 291 291 291 291 291 291 292 292 292 292 292 293 293 293 294 294 294 295 295 296 297 297 298 299 300 300 300 301 301 302 302 303 304 305 307 309 312 314 315 317 318
280 280 281 281 282 282 282 282 283 284 284 284 284 284 283 283 282 283 283 284 284 284 285 285 284 284 284 284 286 287 288 288 289 289 289 289 290 290 290 290 290 290 290 290 290 290 290 290 291 291 291 291 291 292 292 292 292 292 293 293 293 294 294 295 296 297 298 298 298 299 299 299 299 300 300 300 301 302 303 306 307 310 312 314 316 317
280 280 281 281 281 281 282 283 283 284 284 284 284 283 283 283 283 283 283 284 284 284 284 284 284 284 284 284 285 287 288 288 289 289 289 290 290 290 290 290 290 290 290 290 290 290 290 290 290 291 291 291 291 291 291 292 292 292 292 293 293 294 294 295 296 297 297 297 297 298 298 298 298 299 299 299 300 301 302 304 306 308 310 312 315 316
280 281 281 281 281 281 282 283 283 283 283 283 283 283 283 283 283 283 283 283 283 283 283 284 284 284 284 284 285 287 288 289 289 289 289 289 289 289 289 289 289 289 289 289 289 289 290 290 290 290 290 291 291 291 291 291 292 292 292 292 293 294 295 295 296 296 296 296 297 297 297 297 297 298 298 298 299 300 301 303 304 307 309 311 313 315
280 281 282 281 282 282 282 283 283 283 282 282 282 283 283 283 283 283 283 283 283 283 283 284 284 284 285 285 286 287 288 288 288 289 289 289 289 289 289 289 289 289 289 289 289 289 289 290 290 290 290 290 291 291 291 291 291 292 292 292 293 294 295 295 295 295 295 296 296 296 296 296 297 297 297 298 298 299 300 301 303 305 307 310 311 313
280 281 281 281 281 282 282 283 283 283 283 282 282 282 282 282 282 283 283 283 284 284 283 284 284 284 284 285 286 286 286 286 286 287 287 288 288 288 288 288 288 288 288 289 289 289 289 289 289 290 290 290 290 290 291 291 291 291 292 292 293 293 294 294 294 294 295 295 295 295 295 296 296 296 297 297 298 298 299 300 302 304 306 308 310 311
280 280 281 281 281 281 281 282 283 284 283 283 282 281 281 281 281 282 283 283 283 283 283 283 283 283 284 285 285 285 286 285 285 285 285 285 285 286 287 287 288 288 288 288 288 288 289 289 289 289 289 290 290 290 290 291 291 291 291 292 292 292 293 293 294 294 294 294 295 295 295 295 296 296 296 297 297 298 298 299 301 302 304 306 308 309
280 280 281 281 282 281 281 281 282 284 284 283 283 282 281 281 280 281 281 281 282 283 283 283 283 283 283 284 285 285 285 286 286 286 287 286 286 286 286 286 287 287 287 288 288 288 288 288 288 289 289 289 289 290 290 290 290 291 291 291 291 292 292 292 293 293 294 294 294 294 295 295 295 295 296 296 297 297 298 299 300 301 303 305 306 308
281 281 281 281 282 282 282 282 283 284 284 284 283 283 283 282 281 280 280 280 281 282 283 283 283 283 283 283 284 284 285 284 285 286 287 286 287 287 286 286 286 286 287 287 287 287 287 288 288 288 288 289 289 289 289 290 290 290 290 290 291 291 291 291 292 292 293 293 293 294 294 295 295 295 295 296 296 297 297 298 299 300 301 303 305 306
281 281 281 281 282 282 282 282 283 283 284 283 282 282 282 283 282 281 280 280 281 281 282 282 283 283 283 283 283 284 284 284 283 284 284 285 285 285 285 285 285 285 286 286 286 286 287 287 287 288 288 288 288 289 289 289 289 289 289 290 290 290 290 291 291 292 292 292 293 293 294 294 295 295 295 296 296 296 297 297 298 299 301 302 304 305
281 281 281 281 281 281 281 282 282 283 283 282 281 281 281 282 283 282 281 281 281 281 281 281 282 282 283 284 284 284 284 283 283 283 283 283 283 283 283 283 283 284 284 284 284 285 286 286 287 287 287 287 288 288 288 288 288 289 289 289 289 290 290 290 291 291 292 292 293 293 294 294 294 295 295 295 295 296 296 297 298 299 300 301 303 304
282 281 281 281 281 281 282 282 282 281 281 281 281 281 282 282 282 282 281 281 281 281 281 281 281 281 283 283 284 284 283 283 283 282 282 282 283 283 283 283 282 283 283 283 283 284 285 285 285 286 287 287 287 288 288 288 288 288 288 288 289 289 289 290 290 291 291 292 292 293 293 294 294 294 295 295 295 295 296 296 297 298 299 300 302 303
282 282 282 282 282 282 282 282 282 281 281 282 282 282 282 282 282 281 280 280 280 281 281 280 280 281 282 283 283 284 283 282 282 281 281 282 283 283 283 282 282 282 282 282 282 283 285 285 285 285 285 286 286 287 287 287 288 288 288 288 289 289 290 290 290 291 292 292 293 293 293 294 294 294 295 295 295 295 296 296 297 297 298 300 301 303
282 283 282 282 282 282 282 282 281 281 281 282 282 282 282 281 281 281 280 280 280 280 280 279 279 279 280 282 283 283 283 282 281 280 280 281 282 283 283 282 282 282 282 282 282 283 284 284 284 284 285 286 286 287 287 287 288 288 288 288 289 289 290 290 291 291 291 292 292 293 293 294 294 294 294 295 295 295 295 296 296 297 298 299 300 302
283 282 282 282 281 282 282 282 282 281 282 282 282 282 281 281 281 281 280 280 279 279 279 278 277 277 277 279 282 283 283 282 281 280 280 280 281 282 283 282 281 281 281 282 282 282 283 283 284 284 285 286 287 287 287 288 288 288 288 288 289 289 290 290 291 291 291 292 292 293 293 293 294 294 294 295 295 295 295 295 296 296 297 298 300 301
283 282 282 281 281 281 282 282 282 282 282 281 281 281 281 281 281 281 280 279 279 278 278 278 277 276 276 277 279 282 284 282 281 280 280 280 281 282 283 282 282 281 281 281 282 282 283 283 284 284 285 286 287 287 287 288 288 288 288 288 289 289 290 290 291 291 291 292 292 293 293 293 294 294 294 295 295 295 295 296 296 296 297 298 299 300
283 283 282 281 281 281 281 281 281 281 281 281 281 281 281 281 281 280 280 279 279 278 278 277 277 277 277 277 279 282 284 283 281 280 279 279 280 281 283 282 282 281 281 281 282 283 283 284 284 285 286 287 287 287 287 288 288 288 288 289 289 289 289 290 290 291 291 292 292 293 293 293 293 294 294 295 295 295 295 296 296 296 297 298 299 300
282 282 282 281 281 280 281 281 281 282 281 282 282 281 280 280 280 280 279 279 279 279 278 278 278 278 278 278 280 282 284 283 282 280 279 279 280 281 282 282 281 281 280 281 282 283 283 284 284 285 286 286 287 287 287 288 288 288 288 289 289 289 289 290 290 290 291 291 292 292 293 293 293 294 294 295 295 296 296 296 296 296 297 297 298 299
282 282 282 282 281 281 280 281 282 283 283 283 282 281 280 280 279 279 279 279 279 279 279 279 278 279 279 280 281 282 284 283 281 279 279 279 279 280 282 281 281 280 280 281 282 283 283 284 284 285 285 286 287 287 287 288 288 288 288 288 289 289 289 289 290 290 290 291 291 292 292 293 293 294 294 294 295 296 296 296 297 297 297 298 298 299
282 282 283 283 282 281 281 282 283 284 284 283 281 280 280 279 279 279 279 279 279 279 279 279 280 280 281 281 282 283 284 283 281 279 278 277 278 279 281 281 280 280 280 281 282 283 283 284 284 284 285 286 287 287 287 288 288 288 288 288 288 289 289 289 289 290 290 290 291 292 292 292 293 293 294 294 295 295 296 296 297 297 297 298 298 299
283 283 283 283 283 283 283 283 283 284 284 283 282 281 280 280 279 279 279 279 279 279 279 280 281 281 282 282 282 283 283 283 282 280 278 277 277 278 281 281 280 280 280 281 282 282 283 283 284 284 285 286 287 287 287 287 288 288 288 288 288 288 288 289 289 289 290 290 291 291 292 292 293 293 294 294 295 295 296 296 297 297 298 298 298 299
284 284 284 284 284 284 284 284 284 284 284 283 283 282 282 281 281 280 280 280 280 280 280 280 280 280 280 281 281 281 282 283 282 281 279 277 277 278 280 280 280 279 279 281 282 282 283 283 283 284 285 286 286 286 287 287 287 287 287 288 288 288 288 289 289 289 290 290 291 291 292 292 292 293 293 294 294 295 295 296 297 297 298 298 299 299
285 285 284 285 285 285 285 285 285 285 285 284 283 283 282 282 282 281 281 281 280 280 279 279 278 278 278 279 279 280 281 282 282 281 279 278 277 278 280 280 279 279 279 281 282 282 282 282 283 284 284 285 286 286 286 287 287 287 287 288 288 288 288 289 289 289 290 291 291 291 292 292 292 293 293 294 294 295 295 296 296 297 297 298 299 299
286 286 286 287 287 287 288 288 287 287 286 285 283 282 282 281 281 280 279 279 279 279 278 277 276 276 277 278 278 279 280 281 281 281 279 278 277 277 279 279 279 279 279 280 281 281 281 281 282 283 283 284 285 286 286 286 287 287 287 288 288 288 288 289 289 289 290 290 291 291 292 292 292 293 293 294 294 294 295 295 296 297 297 298 298 299
288 288 288 288 288 288 287 287 287 287 287 286 285 283 282 280 279 278 277 277 277 277 276 275 275 275 276 276 277 278 279 280 281 281 280 278 277 277 278 279 279 279 279 279 280 281 281 281 281 282 282 283 284 285 286 286 286 287 287 288 288 288 288 289 289 289 290 290 291 291 292 292 292 293 293 293 294 294 295 295 296 296 297 297 298 298
287 287 287 287 287 287 286 286 286 286 286 286 285 285 283 280 278 276 275 276 277 276 275 275 274 274 275 275 276 277 278 279 280 280 280 279 277 277 278 279 279 279 278 279 279 280 281 281 281 281 282 283 283 284 285 286 286 287 287 287 287 288 288 288 289 289 290 290 291 291 292 292 292 293 293 293 294 294 294 295 295 296 296 296 297 298
286 286 286 286 286 286 286 285 285 285 285 285 285 284 283 280 277 276 276 276 276 276 275 274 274 274 274 275 275 276 277 278 279 280 280 278 277 277 278 278 279 278 278 278 278 279 279 280 281 281 282 283 284 284 285 286 286 286 287 287 287 288 288 288 289 289 290 290 291 291 292 292 293 293 293 294 294 294 294 295 295 295 296 296 297 297
285 285 284 285 285 285 284 284 284 284 284 284 284 283 282 280 278 277 277 277 276 275 275 275 275 275 275 275 275 275 275 277 279 280 280 278 277 277 278 278 278 278 278 277 276 276 277 279 281 282 282 283 283 284 284 285 285 286 286 287 287 287 288 288 288 289 289 290 290 291 292 292 293 293 293 294 294 294 294 295 295 295 295 296 296 297
283 283 283 283 283 283 283 283 283 283 283 283 283 282 281 280 279 278 278 278 277 276 275 275 275 275 275 274 273 273 274 277 279 281 280 278 277 277 278 277 278 278 279 277 275 274 274 277 279 281 282 282 283 283 284 284 284 285 285 286 286 287 287 288 288 288 289 289 290 290 291 291 292 293 293 293 294 294 294 295 295 295 295 295 296 296
282 282 282 282 283 283 282 282 282 282 282 282 281 281 281 280 279 279 278 278 277 277 276 275 275 275 275 275 274 274 274 277 279 281 280 278 277 277 278 277 277 278 279 278 276 275 274 275 277 279 281 281 282 282 283 284 284 285 285 285 285 286 287 288 288 288 288 289 289 290 290 291 291 292 292 293 293 294 295 295 295 295 295 295 295 296
282 282 282 282 282 282 282 282 281 281 281 281 281 280 280 280 279 279 278 278 278 277 277 276 275 275 275 275 275 275 276 277 279 281 281 279 278 277 278 277 277 277 278 278 277 276 275 275 276 278 279 280 281 282 282 283 284 284 285 285 285 286 287 288 288 288 289 289 289 290 291 291 291 292 292 293 293 294 294 295 295 295 295 295 295 296
282 282 282 282 282 282 282 281 281 281 281 281 281 280 280 280 279 279 279 278 278 278 277 277 276 275 275 275 275 275 276 278 280 281 281 279 278 277 277 277 277 277 277 277 277 277 276 276 277 277 278 279 280 281 282 283 284 284 285 285 285 285 286 287 288 288 289 289 290 290 291 291 291 292 292 293 293 294 294 295 295 295 295 295 295 296
281 281 281 281 281 281 281 281 281 281 281 281 280 280 280 279 279 278 278 278 278 278 278 278 277 276 276 275 274 275 275 277 280 281 281 280 279 278 277 277 277 277 276 276 276 276 276 276 277 277 277 278 279 280 282 283 284 284 285 285 285 286 286 287 287 288 288 289 289 290 290 291 291 292 292 293 293 293 294 295 295 295 296 296 296 296
281 281 281 281 281 281 280 280 280 280 280 280 280 280 280 279 279 278 278 278 278 279 279 279 279 278 278 277 276 275 276 278 279 281 281 280 279 278 277 277 277 277 276 276 276 276 276 276 277 277 277 277 278 279 281 283 284 284 284 285 285 286 286 287 287 288 288 288 288 289 289 290 291 292 293 293 293 294 294 294 295 295 296 296 296 297
280 280 281 281 281 280 280 280 280 280 280 280 280 280 280 279 279 279 278 278 278 278 279 279 279 279 279 279 278 278 278 279 279 280 281 280 279 278 277 278 278 278 277 276 276 276 276 276 276 276 276 277 277 278 279 281 282 283 283 284 285 285 286 287 287 287 287 287 288 288 289 290 291 291 292 293 294 294 294 295 295 295 296 296 297 297
280 280 280 281 281 280 280 280 280 280 280 280 280 280 280 279 279 279 278 278 278 278 278 278 279 279 280 280 280 279 279 279 279 280 280 280 279 279 278 278 278 278 278 277 277 276 276 275 275 275 275 276 277 278 279 280 281 281 282 283 284 285 285 286 287 287 287 287 287 288 289 289 290 291 291 292 293 294 294 295 295 296 296 296 297 297
280 280 280 280 281 280 280 280 280 280 280 280 280 280 280 279 279 279 279 278 278 278 278 278 278 279 279 280 280 280 280 280 280 280 280 280 279 279 278 278 278 278 279 278 278 277 276 276 275 275 275 276 276 278 279 279 280 280 281 282 283 284 285 285 286 286 287 287 287 288 288 289 290 290 291 291 292 293 293 294 295 296 296 296 296 297
280 280 280 281 281 281 280 280 280 280 280 281 281 280 280 279 279 279 279 279 278 279 279 279 279 279 279 280 280 280 281 280 280 280 280 280 280 280 279 278 278 278 279 279 278 278 277 276 276 276 276 276 276 277 278 279 279 280 280 280 281 282 284 285 285 286 286 287 287 287 288 289 289 290 290 291 292 292 293 294 295 295 296 296 295 295
280 280 280 281 281 281 281 281 281 281 281 280 280 279 279 278 278 278 278 278 278 278 278 279 279 279 279 279 280 280 280 281 281 281 281 280 280 280 280 279 279 279 279 279 279 279 278 277 277 277 277 277 277 277 277 278 279 280 280 279 279 280 283 284 285 285 286 286 287 287 288 288 289 289 290 291 292 292 293 294 295 295 296 296 296 295
280 280 280 280 281 281 281 282 282 281 281 280 279 279 278 278 277 277 277 277 277 277 278 278 277 277 277 278 279 279 280 280 281 281 281 281 281 281 280 280 280 280 279 279 279 279 279 278 278 278 277 277 277 277 277 278 279 280 280 280 280 281 282 283 284 285 285 286 286 287 288 288 288 289 290 291 292 293 294 294 295 296 296 297 297 296
280 280 280 281 281 282 282 282 282 281 280 279 279 278 278 278 278 277 277 276 276 277 277 277 277 276 276 276 277 278 279 280 281 281 281 281 281 281 280 280 280 280 279 279 278 278 279 279 279 278 278 278 278 277 277 278 278 279 280 280 280 280 279 281 283 284 285 285 286 287 287 288 289 289 290 291 292 293 294 295 295 296 297 297 297 297
280 281 281 281 282 282 282 281 281 280 280 279 278 278 278 278 278 278 277 277 276 277 277 277 277 276 275 275 276 277 278 279 280 281 281 281 281 281 281 281 281 281 280 279 278 278 278 279 279 279 279 279 278 278 277 278 278 279 279 280 280 280 279 280 282 283 284 285 286 287 288 288 289 290 290 291 292 292 293 294 295 296 297 298 298 298
281 281 281 281 281 281 281 281 280 280 280 279 279 279 278 278 278 278 277 277 276 277 276 276 276 275 274 275 275 276 277 277 278 279 280 281 282 282 282 281 281 281 281 280 279 279 278 278 278 279 280 279 279 278 278 278 278 279 279 280 281 281 281 282 282 282 283 284 285 286 287 288 289 289 289 290 291 292 293 294 294 295 297 298 299 299
281 281 281 281 281 280 280 280 280 280 279 279 279 279 279 279 278 278 278 277 277 276 276 276 276 275 274 274 275 275 276 276 277 278 279 279 280 281 281 282 282 282 281 281 281 280 280 279 279 279 279 279 279 279 279 279 279 279 279 280 280 281 281 282 282 282 283 283 284 285 286 287 288 288 287 288 289 291 292 293 294 295 296 298 299 299
280 280 280 280 280 280 280 280 280 279 279 279 279 279 279 279 278 278 278 278 277 277 276 276 276 275 274 275 275 275 275 275 276 276 277 278 279 280 280 281 281 282 282 282 282 282 281 281 281 280 279 278 278 278 279 279 279 279 279 280 280 280 281 281 282 282 283 283 284 284 286 286 286 286 286 287 288 289 291 293 294 296 297 298 299 300
280 280 280 280 280 280 280 280 280 279 279 279 279 279 279 279 279 278 278 277 277 277 276 276 275 275 275 275 275 275 275 275 275 276 277 277 278 279 279 280 280 281 282 282 283 283 283 283 282 282 280 279 278 278 278 279 280 280 280 280 280 280 280 281 282 283 283 284 284 285 285 285 285 285 286 286 287 288 289 291 294 295 297 298 299 300
280 280 280 280 280 279 279 280 280 279 279 278 278 278 279 279 279 279 278 277 277 276 276 275 275 274 274 275 275 276 276 276 276 276 276 277 277 278 278 279 279 280 280 281 281 282 282 283 283 283 283 281 280 279 278 279 280 280 281 281 281 281 281 281 282 282 283 284 285 285 285 285 286 286 286 286 286 287 288 290 292 294 296 298 299 301
280 280 280 280 280 280 280 280 279 279 279 278 278 278 278 278 278 278 278 277 277 276 276 275 275 274 274 274 275 275 276 276 276 276 276 277 277 277 277 278 278 278 278 278 279 279 280 281 282 283 285 284 282 281 279 279 280 280 280 281 281 281 281 281 282 282 283 284 284 285 285 285 286 286 286 286 286 286 288 289 291 293 295 297 299 300
280 280 280 280 280 280 280 280 280 279 279 279 279 278 278 278 278 278 277 277 277 276 276 276 275 275 274 275 275 275 276 276 275 275 276 276 277 277 277 277 277 276 276 276 277 277 277 278 279 280 283 285 285 284 281 280 280 280 280 280 281 281 281 282 282 283 283 284 284 285 285 285 285 285 285 285 285 286 287 288 290 292 294 296 298 300
Wind_Speed
10 10 11 14 14 14 13 16 17 17 15 14 13 13 13 14 15 16 19 19 19 18 17 17 18 20 22 25 27 29 30 31 31 31 31 31 31 31 31 31 30 30 30 30 30 31 31 32 32 33 33 33 32 32 32 32 32 33 34 34 34 33 32 30 29 29 30 32 33 34 33 32 32 32 32 32 32 32 30 23 15 15 19 19 18 16
10 10 11 14 15 15 13 16 17 17 16 15 14 14 14 15 15 14 15 16 18 18 17 17 18 20 21 23 25 28 29 30 30 30 31 31 31 30 30 30 30 30 30 30 30 31 31 31 32 32 32 32 32 32 31 31 32 32 33 33 33 33 32 30 29 29 29 31 32 32 32 31 31 32 32 32 33 33 31 27 19 14 15 16 16 15
10 10 10 12 14 14 13 15 16 16 17 16 15 15 17 17 16 14 13 14 15 15 15 16 17 18 20 21 23 26 28 29 30 30 30 30 30 30 30 30 30 30 30 30 30 31 31 31 31 32 32 32 31 31 31 31 31 32 32 33 32 32 31 30 29 29 29 30 30 30 30 31 31 31 32 32 33 33 32 29 24 19 15 13 12 12
11 10 10 10 11 13 14 14 15 15 14 15 16 17 19 17 15 13 13 13 14 14 15 16 17 17 17 17 19 23 26 28 29 29 29 29 30 30 30 30 30 30 30 30 30 30 30 30 30 31 31 31 31 30 30 30 31 31 32 32 31 31 31 30 29 29 28 28 28 28 29 30 30 31 31 32 32 33 32 31 28 25 21 14 8 7
11 11 11 10 10 12 13 14 14 13 12 13 15 16 16 14 13 13 13 14 14 14 14 15 15 16 14 14 17 21 25 27 28 29 29 29 30 30 30 30 30 30 30 29 29 29 29 29 29 30 30 30 30 30 29 30 30 31 31 31 31 30 30 30 29 28 27 26 26 26 27 28 29 29 30 31 31 32 32 31 29 28 25 18 10 3
11 11 10 10 10 10 11 11 11 11 11 12 13 13 13 12 12 12 12 12 13 13 12 12 13 14 14 14 17 21 25 27 28 29 29 29 29 29 29 29 29 29 28 28 28 28 28 28 29 29 29 29 29 29 29 29 30 30 31 31 30 29 29 29 28 28 27 25 25 25 26 26 27 28 28 29 30 31 30 30 29 28 26 21 14 6
11 10 10 10 10 10 10 10 10 10 10 10 11 11 11 11 11 12 12 12 12 11 11 11 12 13 14 15 18 21 23 25 26 27 27 28 28 27 27 27 27 27 27 27 27 27 27 28 28 29 29 29 29 29 29 29 29 30 31 30 29 28 28 28 27 27 26 25 24 24 24 25 26 26 27 28 29 30 30 29 29 29 27 23 17 11
12 11 11 11 11 10 10 10 10 10 10 10 10 10 11 10 10 11 13 13 12 11 11 11 11 12 12 14 16 17 18 19 20 20 22 22 23 23 24 24 25 25 26 26 26 27 27 28 28 28 28 28 28 28 28 28 28 29 30 30 29 28 27 27 27 26 26 25 24 24 24 24 24 25 26 27 28 29 29 29 29 29 28 25 21 16
14 13 13 12 12 11 10 10 10 10 11 10 10 10 11 10 10 10 11 11 11 10 10 10 11 11 12 12 13 14 15 15 15 15 16 15 16 18 20 21 23 24 25 25 26 26 27 27 28 28 28 28 27 27 27 27 27 28 28 29 28 28 27 27 26 26 25 25 24 24 23 23 23 24 25 26 27 28 28 29 29 29 29 26 23 19
14 14 13 12 11 10 10 10 10 10 11 11 10 10 10 10 10 10 11 10 10 9 9 10 10 11 12 12 12 13 14 15 16 17 18 17 18 19 19 20 20 21 23 24 25 26 26 27 27 27 27 27 26 26 26 26 26 27 27 28 28 28 27 27 26 26 25 25 24 24 23 23 23 23 24 25 26 26 27 28 29 29 29 27 24 21
13 12 12 11 10 9 9 9 9 9 10 10 10 9 9 9 9 10 11 11 10 9 9 9 10 11 12 11 11 11 12 12 13 15 17 18 19 20 20 19 19 20 22 22 23 24 24 25 25 26 26 25 25 25 25 24 24 25 25 26 27 27 27 27 26 26 25 25 24 24 23 23 23 23 23 24 24 25 26 27 28 29 29 27 25 22
11 10 9 9 9 8 8 8 8 8 8 8 8 8 8 8 8 9 10 11 11 11 10 10 10 11 11 11 11 11 10 11 11 11 11 12 13 14 14 14 15 16 17 18 19 20 22 22 23 23 24 24 24 24 23 23 22 23 23 24 25 26 27 27 27 26 25 25 25 24 23 23 22 22 22 22 23 24 25 26 27 28 28 27 25 23
9 8 8 9 8 8 7 7 7 6 6 7 7 8 8 8 8 8 10 11 11 11 11 11 11 11 11 10 10 10 10 10 10 10 9 9 9 9 9 9 10 10 11 11 12 13 17 19 20 21 21 22 22 22 22 21 21 21 21 22 23 24 26 27 27 27 26 26 25 24 23 22 22 22 21 21 22 22 24 25 26 27 27 26 25 23
9 9 9 9 8 8 7 7 7 7 7 8 8 9 9 9 9 9 10 11 11 11 10 11 12 11 10 10 10 10 10 10 10 9 9 9 8 8 8 8 8 8 8 9 9 10 13 14 15 16 18 19 20 21 20 19 19 19 19 20 21 22 24 26 27 27 27 26 25 24 23 22 22 21 21 20 20 21 22 24 25 25 26 26 25 23
10 9 9 8 8 7 7 7 8 9 9 8 8 9 9 9 9 10 10 11 11 10 10 12 12 11 10 9 9 9 9 9 9 9 9 8 8 8 8 8 8 8 8 8 9 10 12 12 11 12 14 16 18 18 18 18 18 18 18 18 19 21 23 25 26 26 27 26 25 24 23 22 22 21 21 20 19 19 21 22 23 24 25 25 24 24
9 9 10 10 10 9 8 8 8 9 9 9 9 9 10 10 9 9 10 10 10 9 10 11 11 11 9 8 8 8 8 9 8 8 9 8 8 7 8 8 8 8 8 8 9 9 10 10 11 12 13 16 18 20 21 19 18 18 18 18 19 20 22 23 25 26 26 26 25 24 23 22 22 22 21 20 19 19 20 21 22 23 23 24 24 24
9 10 10 10 10 10 9 9 9 9 9 9 9 9 9 9 9 9 9 9 9 8 9 9 10 9 7 6 6 7 7 7 7 8 8 8 8 7 7 8 8 9 9 9 9 9 9 10 10 11 12 15 18 21 21 20 19 19 18 18 19 20 21 23 24 25 26 26 25 25 23 22 22 22 22 20 19 18 19 21 22 22 22 23 23 23
9 9 9 9 10 10 10 10 9 9 9 9 9 9 9 9 9 9 10 9 9 9 9 9 9 8 7 6 5 5 7 7 8 8 9 8 8 7 7 8 8 9 9 9 9 9 9 10 10 11 12 17 20 21 22 21 21 20 19 19 19 19 20 21 23 24 25 25 25 25 24 22 22 22 21 20 19 18 19 20 21 21 21 22 23 23
10 10 9 10 10 10 10 10 9 9 9 8 9 9 10 10 10 10 10 9 9 10 10 10 10 9 8 8 7 7 7 7 8 8 9 9 8 7 7 8 8 9 9 9 9 9 9 10 11 14 16 20 21 22 23 22 21 20 20 19 19 19 19 20 22 23 24 25 25 25 24 23 22 22 21 21 20 19 19 20 20 21 20 21 22 22
11 10 9 10 10 10 10 10 9 9 8 8 9 10 11 11 11 11 10 9 10 10 10 10 10 10 9 9 9 8 7 7 7 8 9 9 9 8 7 8 9 9 9 9 9 9 9 9 10 13 16 19 21 22 23 23 22 21 20 19 18 18 19 20 21 22 23 24 24 24 24 23 22 21 21 21 20 19 19 19 20 20 20 21 21 22
11 11 10 10 9 9 9 9 9 10 10 11 11 11 11 11 11 11 10 10 10 10 10 10 10 9 8 8 8 8 7 7 8 8 7 8 8 8 7 7 8 9 9 9 9 8 9 9 9 10 13 16 19 21 22 22 22 21 20 19 19 18 19 20 21 22 23 23 24 24 24 23 22 21 21 21 20 19 19 19 20 20 20 20 21 21
11 11 11 11 11 10 9 10 11 11 12 12 11 10 9 10 11 11 11 10 10 10 10 10 9 9 9 9 9 9 8 8 8 8 6 8 8 8 6 7 8 8 9 8 8 8 9 9 9 10 12 16 19 20 22 22 22 21 21 20 19 19 19 19 20 21 22 23 23 23 23 23 22 21 21 21 20 20 19 19 19 20 20 21 20 20
11 11 11 11 10 10 10 10 10 11 11 10 10 9 8 9 10 11 11 10 10 10 11 10 10 10 10 10 10 10 9 9 8 8 7 8 9 8 6 6 7 8 8 8 8 8 8 8 9 10 12 16 19 20 21 22 22 22 22 21 20 19 18 19 19 20 21 22 22 23 23 22 22 21 21 21 20 20 19 19 19 20 21 21 20 20
10 10 10 9 8 8 9 9 10 10 9 9 9 9 9 10 11 11 11 11 11 10 10 11 11 11 11 11 11 10 9 8 7 7 6 7 8 7 6 6 7 8 8 8 8 8 8 8 8 9 10 14 17 19 21 22 23 23 23 21 20 19 18 18 18 19 20 21 21 22 22 22 21 21 21 21 20 20 19 19 20 20 21 21 20 19
9 9 9 9 10 12 13 13 13 13 12 11 10 10 10 11 12 12 11 11 10 10 10 11 11 11 10 10 9 8 7 7 6 6 5 6 7 7 7 6 7 8 8 7 7 8 8 8 8 8 9 12 15 18 20 22 23 23 23 22 20 18 17 17 17 18 19 20 20 21 21 21 21 21 21 21 20 19 19 19 19 20 21 21 21 19
13 14 15 17 19 22 24 23 23 21 20 16 13 11 11 11 12 12 11 10 9 9 10 11 11 10 8 7 7 6 5 5 5 5 5 5 6 7 6 6 6 7 7 7 7 7 8 8 8 8 9 10 13 16 19 20 21 22 22 21 20 18 17 16 17 17 18 19 20 20 20 20 21 21 21 21 20 20 19 19 19 20 21 21 20 19
20 21 23 24 25 26 26 25 25 25 25 22 19 15 13 11 11 11 10 9 9 9 9 10 10 9 8 7 7 6 5 5 4 5 5 5 5 6 6 6 6 7 8 7 7 7 8 9 9 9 9 9 11 13 17 18 19 20 21 20 20 19 17 16 16 16 17 18 19 20 20 20 20 21 21 21 20 20 19 19 19 20 20 19 18 16
20 21 22 22 23 23 23 23 23 22 22 22 22 20 16 11 10 10 10 9 9 9 9 9 9 9 8 8 7 6 6 5 5 5 5 5 5 6 6 6 6 6 7 6 7 8 9 9 9 9 9 9 9 10 13 15 17 18 18 19 19 18 17 16 15 15 16 17 18 19 19 20 20 20 21 21 20 20 19 19 19 19 18 16 13 11
17 18 18 19 19 20 20 20 19 19 20 20 20 18 14 10 9 9 10 9 9 9 9 9 9 9 8 8 8 7 7 6 6 6 5 5 5 5 5 5 5 5 5 5 5 6 7 7 7 7 7 8 8 8 9 11 12 13 14 16 16 16 16 15 14 14 15 16 17 17 18 19 19 20 20 20 20 20 19 19 19 17 14 12 10 9
12 13 13 14 15 15 15 15 15 15 17 18 18 17 12 9 8 8 9 9 9 9 10 9 9 9 8 8 8 7 6 5 5 5 5 4 4 4 5 5 5 5 4 4 4 4 4 5 5 5 6 6 6 6 6 7 8 9 10 12 13 13 14 14 13 13 13 14 15 16 17 18 18 19 19 19 19 19 19 20 18 14 10 9 9 9
10 10 10 11 11 11 11 11 11 12 13 15 14 13 10 8 7 7 8 8 9 9 10 9 9 9 8 7 6 5 4 4 4 4 3 3 4 4 5 5 6 5 5 4 4 4 4 3 4 4 5 5 6 6 7 7 7 7 7 8 9 10 12 12 12 12 12 13 14 15 17 17 18 18 19 19 19 19 19 19 17 13 9 9 9 8
9 9 8 9 9 9 9 9 9 9 10 10 10 9 8 8 7 7 7 8 8 9 9 9 9 9 9 8 7 6 4 4 4 5 4 4 4 4 5 6 6 6 5 5 5 5 4 4 3 4 5 5 6 6 7 7 7 7 7 7 7 8 10 10 11 11 10 12 13 15 16 17 18 19 19 19 19 19 19 19 17 14 10 9 9 8
8 8 8 8 8 8 8 8 8 8 8 8 8 7 7 7 7 7 7 7 8 8 9 9 9 9 9 9 9 7 6 5 6 6 6 5 4 4 5 6 6 6 5 5 5 5 5 5 4 4 5 5 5 6 7 7 7 7 6 6 6 7 8 8 8 8 8 9 10 12 14 16 17 18 19 19 19 19 19 19 18 16 12 10 9 8
8 9 9 9 8 8 8 8 8 8 8 8 8 7 7 7 7 7 7 7 7 8 8 9 9 9 9 9 9 8 7 7 7 8 7 6 5 5 5 6 7 6 6 5 5 5 5 6 6 5 5 5 5 5 6 6 6 6 6 6 6 6 6 6 6 6 6 6 6 7 10 12 14 16 17 17 18 18 19 19 19 18 16 12 10 8
8 9 9 9 8 8 8 8 8 8 8 8 8 8 7 7 7 7 7 7 7 8 8 8 9 9 9 9 9 8 8 7 8 8 8 7 6 5 6 6 6 6 6 5 5 5 5 7 7 7 6 5 5 5 5 5 6 6 5 5 5 5 5 5 5 6 6 5 5 5 6 7 9 11 12 14 15 16 18 18 19 19 19 16 13 10
8 8 9 8 8 8 8 8 8 8 8 8 7 7 8 7 7 7 7 7 8 8 9 9 9 9 9 9 9 9 9 8 8 9 9 8 7 6 6 6 6 6 6 6 6 6 6 7 7 8 8 7 5 4 4 5 5 5 5 5 5 5 5 5 5 5 5 5 5 5 5 6 7 8 9 11 13 15 17 18 19 19 20 19 17 15
8 8 8 8 8 7 8 7 7 7 7 7 7 8 8 8 8 8 7 8 8 8 9 10 10 10 11 10 10 10 10 9 9 10 10 9 8 8 7 7 7 7 7 7 7 7 7 7 8 8 8 7 6 4 4 4 4 5 5 5 5 5 5 5 5 5 5 6 6 6 6 6 6 7 7 10 11 13 15 17 18 19 19 20 19 19
8 8 8 8 7 7 7 7 7 7 7 7 8 8 9 9 9 9 8 8 9 9 9 9 9 11 13 13 13 13 12 12 12 13 13 11 10 9 9 8 8 8 8 8 8 8 8 8 8 8 7 6 6 6 6 5 5 5 5 5 5 5 6 5 5 5 5 5 6 6 6 6 6 6 7 8 8 9 10 11 13 15 17 18 18 19
7 8 8 8 8 7 7 7 7 7 7 8 8 8 9 9 9 9 8 8 9 9 10 10 10 10 12 14 15 15 15 15 15 14 14 13 11 10 9 9 9 9 8 8 8 8 8 8 8 8 7 6 7 7 7 6 6 6 5 5 6 6 6 6 5 5 5 5 5 6 6 6 6 6 7 7 7 8 8 8 9 11 12 12 13 15
7 8 8 8 8 7 7 7 7 7 7 8 9 9 9 9 8 8 8 8 8 9 10 11 10 10 10 11 12 13 14 13 13 13 13 12 11 10 9 9 9 9 8 8 8 8 9 9 9 9 9 7 7 7 6 6 6 6 6 5 5 5 5 5 5 5 5 5 5 5 5 5 5 6 7 7 8 8 8 8 8 8 9 9 9 9
7 8 8 8 8 8 8 8 7 7 8 8 8 8 8 7 7 7 8 8 8 8 8 9 9 9 9 9 10 11 12 12 12 12 11 12 12 11 10 9 9 9 9 9 9 9 9 9 9 9 9 9 9 8 8 8 8 8 8 7 6 6 6 6 6 6 6 5 5 5 5 5 6 6 7 7 8 8 8 8 8 7 8 8 8 8
8 8 8 7 7 7 7 7 8 8 8 8 8 7 7 7 7 7 8 8 8 7 7 7 8 8 8 8 9 9 10 10 11 11 11 12 13 12 11 10 9 9 9 9 9 9 9 9 10 10 9 8 8 8 8 8 8 8 8 8 8 7 7 7 6 6 6 5 5 5 6 5 5 6 6 7 7 8 8 9 9 9 8 7 7 8
7 7 8 8 8 8 8 8 8 7 7 7 7 7 7 7 7 8 8 8 8 8 8 8 8 8 8 8 8 8 8 9 10 10 11 11 12 12 12 11 11 9 9 9 9 9 10 10 10 9 9 8 8 9 9 8 8 8 8 8 7 6 5 4 4 5 5 5 5 5 5 5 5 5 5 6 7 7 8 9 10 10 9 8 8 8
7 7 7 7 7 7 7 7 6 6 7 7 7 7 7 7 8 8 8 8 8 8 8 8 8 8 8 8 8 8 7 7 8 9 10 11 11 11 12 12 12 11 10 9 9 9 9 9 9 9 8 8 8 9 9 8 8 7 7 7 7 7 6 5 5 6 6 6 5 5 5 4 4 4 5 5 6 7 8 8 9 9 9 8 8 8
7 7 7 7 7 7 7 7 7 7 7 7 7 7 7 7 8 8 8 8 8 8 8 8 7 7 7 8 8 7 7 7 6 7 7 9 11 12 12 11 11 11 10 10 9 9 8 9 8 8 7 7 8 9 9 9 8 8 8 8 8 8 8 7 7 7 6 6 6 6 5 5 5 4 4 5 6 7 7 8 8 9 9 9 8 8
7 7 7 7 7 7 8 8 7 7 7 7 7 7 7 7 7 7 8 8 8 8 8 8 7 7 8 8 8 7 7 7 6 6 6 6 7 8 9 9 9 9 9 9 10 10 9 9 8 8 7 8 8 9 9 9 8 8 7 7 7 7 8 7 7 7 7 7 7 6 6 6 6 5 5 5 6 6 7 8 8 9 9 9 9 9
7 7 7 7 7 7 7 7 7 7 7 7 7 7 7 7 7 7 8 8 8 8 8 8 8 8 9 8 8 8 8 8 7 7 6 6 6 7 7 8 8 9 9 9 9 10 10 10 10 9 8 8 8 9 9 8 8 8 8 7 7 7 7 7 7 7 7 7 7 7 7 6 6 5 5 5 5 6 7 7 8 9 9 9 8 9
7 7 7 7 7 7 7 7 7 7 7 7 7 7 7 7 7 8 8 8 8 8 8 8 8 8 9 9 9 8 9 8 8 7 7 6 6 6 6 6 7 7 8 9 10 10 11 11 12 11 10 9 9 9 9 8 8 8 7 7 7 7 7 7 7 6 6 7 7 7 7 6 5 5 5 5 5 5 6 7 8 9 9 9 9 9
7 7 8 7 7 7 7 7 7 7 7 8 7 7 7 8 8 8 8 8 8 7 7 8 8 9 9 9 9 9 9 9 8 7 7 6 6 6 6 6 6 6 7 8 9 9 10 11 12 13 12 11 10 10 9 9 8 8 7 7 7 7 7 7 7 6 6 7 8 8 7 6 6 5 5 5 6 6 7 8 8 9 9 9 9 9
7 7 8 8 8 8 8 8 8 8 8 8 8 8 7 7 7 7 7 7 7 7 7 8 8 9 9 9 9 9 9 8 8 7 7 6 6 6 6 6 6 6 7 6 7 7 7 8 10 12 14 15 14 12 10 9 9 8 8 7 7 7 7 7 6 6 6 7 7 8 8 7 6 6 5 6 7 7 7 8 9 9 9 9 9 10
7 7 7 7 8 8 8 8 8 8 8 8 8 8 8 7 7 7 7 7 7 7 8 8 8 9 9 9 9 9 9 9 8 8 7 7 6 6 6 6 6 6 6 6 5 5 4 5 6 8 11 16 17 16 12 10 9 8 8 8 7 7 7 7 7 6 7 7 7 7 8 8 7 7 6 6 6 7 7 8 9 9 10 9 9 10
Wind_Direction
281 282 282 281 280 279 277 275 276 276 275 274 274 274 275 274 273 272 272 271 271 270 270 270 271 272 273 274 275 276 276 277 278 279 280 281 282 283 283 283 284 284 284 285 285 285 285 285 285 285 286 286 287 287 288 289 289 290 290 291 292 293 295 297 299 299 299 298 299 301 306 312 316 319 322 327 331 333 332 320 288 242 223 221 219 215
279 280 280 280 279 278 277 275 274 274 275 275 275 276 276 276 276 275 273 272 271 271 271 271 272 272 273 274 275 276 276 277 278 279 279 280 281 282 283 283 284 284 284 285 285 285 285 285 285 285 285 285 286 286 287 287 288 288 288 289 291 292 294 295 296 295 294 295 298 303 308 314 317 319 322 326 329 331 331 327 311 277 246 234 224 213
281 280 279 279 278 277 277 277 276 275 275 276 277 277 278 278 277 275 274 273 271 270 270 271 272 273 273 274 275 275 275 276 277 278 278 279 280 281 282 283 284 285 285 285 285 285 285 284 284 284 284 284 285 285 286 286 286 287 287 288 289 291 292 293 292 292 292 294 299 304 309 313 315 317 319 322 325 327 328 328 323 313 293 265 236 211
281 280 280 279 278 276 276 278 278 277 276 276 277 277 277 276 275 274 273 273 272 272 271 271 271 272 273 274 274 274 274 275 275 276 277 278 280 281 283 284 285 286 286 286 285 285 284 283 283 282 282 283 283 284 285 285 285 286 286 286 287 288 289 290 291 291 292 297 301 306 309 312 313 315 316 318 320 321 323 325 325 324 316 300 269 213
278 278 279 279 278 276 276 277 278 278 278 277 277 276 276 274 273 273 272 272 272 271 271 270 270 270 271 271 271 272 273 274 275 276 277 278 280 282 283 284 285 285 286 285 284 283 282 282 281 281 281 282 282 283 284 284 284 284 284 285 286 287 288 290 291 294 296 300 303 306 309 311 312 313 314 314 315 316 318 321 322 323 320 314 305 264
276 276 278 277 277 278 279 278 278 278 278 276 275 274 272 271 270 270 270 270 269 269 269 269 268 268 268 269 270 272 273 274 275 276 277 279 280 282 283 283 283 284 283 283 282 282 281 281 280 280 281 281 282 282 283 283 283 283 283 283 284 286 288 291 293 295 298 300 303 305 307 309 310 311 311 310 310 311 313 317 319 320 319 318 320 334
276 275 276 276 276 276 277 277 276 276 275 275 274 272 270 269 269 268 268 268 269 270 270 269 269 269 268 269 270 272 273 274 275 276 277 279 279 280 281 281 281 281 281 281 281 280 281 280 280 280 281 281 281 281 281 282 282 282 282 283 285 287 289 291 293 295 297 299 301 303 305 306 307 307 307 306 306 307 309 313 315 317 318 320 325 340
276 275 273 273 274 274 273 272 272 273 272 273 274 274 273 272 270 270 270 270 270 271 271 271 270 269 268 268 269 270 272 273 274 275 276 277 277 277 278 279 280 280 281 281 281 281 281 281 281 281 280 280 280 280 280 280 280 281 282 283 285 287 289 290 292 293 294 295 297 299 302 303 304 303 303 302 303 304 306 310 312 315 317 320 326 338
274 276 274 273 274 276 277 274 271 270 270 271 272 273 275 275 275 274 273 272 270 268 268 269 269 269 268 268 269 269 270 271 272 272 273 273 274 275 278 280 281 282 282 281 281 281 281 281 281 280 280 280 279 279 279 279 280 281 282 284 286 287 287 287 288 289 290 291 293 295 297 299 301 301 300 300 301 302 304 307 311 314 317 320 326 335
270 273 275 274 273 273 275 275 273 270 268 268 269 270 272 275 276 276 275 271 268 265 263 265 269 273 274 272 271 271 271 272 272 272 272 273 275 277 280 282 283 282 282 281 281 281 280 280 280 280 279 279 279 278 278 279 280 281 283 284 285 285 285 285 285 286 287 288 289 290 292 295 296 298 298 299 300 301 303 306 309 312 316 320 325 332
269 270 272 272 271 268 267 270 273 273 269 267 265 263 262 265 269 272 274 273 273 272 272 274 277 280 281 280 277 275 274 273 273 272 272 276 278 281 282 282 282 281 280 279 279 279 278 278 278 278 278 278 278 278 278 278 279 280 282 284 285 285 285 285 285 285 285 285 286 287 289 290 292 293 295 297 299 301 303 305 308 311 314 319 323 328
269 270 270 271 272 271 269 269 269 268 265 264 264 264 262 260 263 269 275 279 282 285 286 286 284 283 282 282 281 278 276 274 274 274 275 277 280 281 282 281 279 278 278 277 276 276 276 276 276 276 277 277 277 277 277 278 279 280 281 283 284 285 285 285 285 285 285 284 285 285 286 287 289 291 292 295 298 300 302 304 306 309 313 316 320 323
269 270 272 273 273 271 269 267 266 264 264 268 275 280 281 279 278 279 280 282 285 288 289 288 286 283 279 278 278 278 276 276 275 276 277 278 280 280 280 278 277 276 276 276 275 274 274 275 276 276 276 276 276 276 277 277 278 279 281 282 284 285 285 286 286 286 285 285 285 285 286 287 288 289 291 293 296 298 300 302 304 306 310 314 317 319
272 271 269 267 265 263 263 267 273 279 283 286 287 289 290 291 289 287 283 283 284 286 287 287 286 284 280 277 275 275 275 276 276 276 276 276 276 276 276 275 274 274 274 275 274 274 275 276 277 277 276 276 276 276 276 277 278 278 279 281 282 283 284 285 286 286 286 286 287 287 288 288 289 289 289 291 293 295 297 298 300 303 307 310 313 315
277 275 273 270 270 273 278 285 290 292 292 292 292 291 290 290 288 286 284 285 286 288 288 286 284 282 280 278 276 275 274 274 275 275 275 273 272 271 272 272 273 272 272 273 273 274 276 276 276 276 276 275 275 274 275 276 276 277 278 279 280 281 282 284 285 286 286 287 288 288 290 290 290 290 289 290 291 292 293 295 297 300 304 307 309 311
280 280 282 286 289 291 294 296 295 294 293 293 293 293 293 291 289 288 287 288 289 289 288 287 285 284 281 278 277 276 274 274 274 273 273 272 270 269 270 272 273 273 272 272 273 275 276 275 274 274 274 274 274 275 275 276 276 276 277 277 278 279 280 282 283 285 286 287 288 289 289 290 290 290 290 289 290 290 290 292 294 298 302 304 306 307
281 283 287 291 293 295 296 295 294 294 295 295 295 293 291 290 289 288 287 287 288 288 286 286 287 288 287 284 280 276 275 274 273 272 273 272 271 270 270 272 273 273 273 273 273 274 275 274 273 273 274 274 275 275 276 276 276 276 276 277 277 278 279 281 282 284 285 286 287 288 289 289 289 289 289 290 290 290 290 291 293 296 299 301 302 303
283 287 292 294 295 296 297 297 297 297 297 296 295 293 290 288 287 286 285 285 285 285 285 285 284 283 286 287 284 280 279 277 276 276 275 274 274 273 271 270 270 271 272 271 271 271 271 271 270 270 272 274 275 275 276 276 276 276 276 276 276 277 278 280 281 283 284 285 286 287 287 288 288 288 289 290 290 290 290 290 292 294 297 298 298 298
288 292 295 295 296 296 296 296 296 296 297 297 296 295 293 290 287 286 284 284 283 282 282 281 279 277 278 280 282 283 283 281 279 278 277 277 276 275 272 269 268 268 269 269 269 269 268 268 267 268 270 272 274 274 275 275 275 275 275 275 276 276 277 279 280 281 282 284 285 285 286 287 287 288 288 289 289 289 289 289 291 292 294 294 294 294
291 292 293 295 295 293 290 289 291 294 297 296 296 294 292 291 289 288 286 283 281 278 276 275 274 273 274 276 279 282 285 282 279 277 277 277 276 275 272 270 269 269 270 270 270 270 270 270 270 270 270 271 272 273 274 274 274 274 273 274 274 275 276 277 278 279 280 281 282 283 284 284 285 286 286 287 288 288 287 288 289 290 291 290 289 289
288 288 288 290 289 288 286 288 291 294 295 295 294 292 291 291 291 289 287 284 281 279 276 274 274 276 278 280 282 284 286 283 280 279 279 278 276 275 273 272 272 272 271 272 272 272 272 272 271 270 269 270 270 271 272 273 273 273 273 274 274 275 276 276 276 276 277 278 278 279 281 281 282 283 283 284 285 285 285 286 288 288 288 286 285 284
282 283 284 283 282 280 282 287 290 292 293 292 292 291 292 293 293 292 291 290 288 286 285 284 284 285 286 285 285 284 284 280 278 278 280 278 276 275 275 274 273 272 272 273 274 273 273 272 271 270 270 270 270 271 272 273 274 274 274 274 274 274 274 274 273 273 273 274 275 276 277 278 278 279 280 280 281 282 283 284 285 286 286 284 282 280
274 276 279 278 277 277 281 285 288 289 289 288 287 288 292 294 295 295 297 296 294 292 290 289 288 286 284 282 281 280 277 273 272 273 275 275 276 276 277 276 274 273 273 275 275 275 274 273 272 271 272 271 271 272 273 274 275 276 276 275 274 273 271 270 269 268 268 269 270 271 273 274 275 275 276 276 277 278 280 281 283 283 283 282 280 278
267 270 273 274 274 276 279 282 284 286 287 287 288 290 292 293 294 294 293 292 290 288 287 285 283 280 276 275 275 274 271 267 265 265 267 271 275 277 279 279 277 276 275 276 277 277 275 273 272 271 272 271 272 273 274 275 276 276 276 275 273 271 268 265 264 263 263 264 266 267 268 270 271 271 272 272 273 274 275 278 279 280 281 281 280 279
274 276 277 277 278 280 282 284 287 290 293 294 295 297 297 297 295 293 289 286 284 282 281 279 278 276 276 275 274 272 270 265 261 260 263 270 274 277 279 280 279 279 279 279 279 279 277 275 274 273 273 273 273 273 274 275 275 276 276 275 273 270 266 263 261 260 260 261 262 263 265 266 267 268 269 269 269 270 271 273 275 277 279 280 281 281
285 283 283 284 286 287 290 291 294 296 297 298 299 301 302 301 298 294 290 286 284 284 283 281 280 279 281 281 279 278 278 273 267 263 264 272 277 279 279 279 279 279 281 281 280 279 279 278 277 276 276 275 275 274 274 274 274 275 275 275 274 272 268 264 261 259 258 259 260 261 262 263 264 265 266 266 266 267 267 269 271 274 276 279 281 281
285 284 284 286 288 291 292 294 295 296 297 297 299 301 303 303 300 296 292 292 293 292 289 287 286 286 286 285 284 285 287 283 276 271 270 274 276 278 279 279 279 280 282 282 282 281 281 280 279 277 276 275 274 273 272 272 273 275 276 276 276 274 271 266 261 258 256 257 257 258 259 260 261 262 263 263 263 264 264 266 268 271 274 277 279 280
281 282 283 286 288 290 291 292 293 294 296 297 299 300 302 302 300 297 296 299 299 297 291 288 288 288 288 286 286 286 286 283 279 276 273 272 272 274 278 281 281 282 283 284 283 281 279 276 274 272 269 268 268 268 269 271 273 275 276 277 277 276 273 268 263 258 255 254 255 255 256 257 257 258 259 259 260 261 261 262 265 267 271 273 274 275
278 281 283 286 288 290 291 292 293 294 295 295 296 298 299 297 295 294 295 298 296 291 285 284 283 284 285 285 285 283 280 276 273 271 268 266 267 271 277 280 280 281 284 285 283 279 273 269 266 264 263 264 265 267 270 272 274 275 276 277 276 276 274 270 265 260 256 255 255 256 256 256 256 256 256 256 257 258 258 259 261 264 267 267 268 268
289 291 291 291 291 292 292 292 292 292 292 292 293 293 293 289 285 285 288 290 288 284 281 281 280 280 282 284 283 280 274 270 268 268 266 265 267 272 278 279 279 280 284 286 286 281 275 270 268 268 271 274 276 278 280 279 278 278 278 277 277 276 274 271 267 262 258 257 256 257 258 257 257 256 255 255 255 255 255 256 256 258 259 259 260 261
302 300 297 295 295 294 294 293 292 290 290 290 290 290 287 281 278 278 281 283 283 283 282 283 282 281 282 282 282 280 277 278 282 286 282 274 274 277 282 282 282 283 284 285 288 290 290 284 281 282 287 289 289 287 285 283 281 279 279 280 279 278 275 272 268 264 259 256 255 255 256 256 256 256 255 254 254 253 253 252 252 252 252 253 254 254
301 298 295 295 295 295 294 293 292 291 290 290 288 285 281 278 276 275 278 280 282 283 283 283 283 281 279 278 277 278 281 286 293 294 289 281 277 278 280 280 281 281 280 277 279 284 290 291 290 290 291 289 287 284 281 279 278 277 277 278 278 277 275 273 269 265 258 253 250 249 250 251 251 252 252 252 252 251 250 249 248 248 247 248 249 250
296 295 294 294 294 293 292 292 292 293 292 292 290 288 285 281 279 277 278 280 281 281 282 282 282 281 279 277 276 275 277 281 285 286 283 278 276 276 276 276 277 277 278 273 272 273 276 280 284 285 283 280 278 276 275 273 272 272 272 272 274 275 274 273 270 266 258 251 246 243 243 245 246 246 248 248 248 249 249 248 246 245 244 245 247 248
295 294 294 293 293 292 291 292 293 294 294 294 294 293 291 287 284 282 281 281 279 278 278 279 280 280 280 279 277 276 275 277 281 283 281 276 273 275 276 275 275 277 278 275 272 270 269 273 277 280 281 276 274 272 272 271 270 269 267 267 268 271 273 273 272 270 266 257 249 243 240 241 241 241 242 243 244 244 245 245 244 243 242 243 245 247
295 295 294 293 293 293 293 295 296 296 296 297 297 297 295 291 287 284 281 280 278 277 276 275 275 276 277 278 278 277 277 279 282 284 283 277 276 277 277 274 274 276 278 276 275 274 273 275 277 280 283 282 279 275 272 272 270 269 266 264 264 265 266 267 270 272 272 267 260 252 246 244 240 238 238 238 238 239 240 241 241 241 240 240 242 244
296 295 294 295 295 296 296 297 298 298 298 299 300 299 297 293 289 285 282 280 279 279 277 275 273 272 271 272 274 276 278 280 283 283 282 279 278 278 277 275 275 276 276 276 276 276 277 279 280 281 282 282 281 279 274 274 275 275 272 268 266 263 262 262 263 265 268 266 263 259 254 253 251 247 243 239 237 236 236 236 237 238 238 238 239 240
294 294 295 297 297 298 297 298 299 299 300 301 301 300 298 294 291 287 284 281 280 279 279 277 274 270 267 267 268 271 275 278 279 279 277 277 276 275 274 274 274 273 272 273 274 276 278 280 281 280 279 278 279 281 282 282 282 279 277 276 275 273 270 266 263 263 263 262 262 260 258 258 260 261 260 250 244 239 235 234 234 234 235 236 237 238
294 295 296 298 299 300 299 299 299 300 301 302 302 301 299 295 291 288 285 281 278 277 277 276 273 270 267 266 265 265 267 269 270 270 269 268 267 266 267 269 269 267 265 267 270 272 275 277 278 279 278 277 278 280 284 286 285 283 282 284 283 282 278 273 268 264 261 260 260 260 259 258 259 261 264 260 254 246 237 230 228 228 230 231 233 235
294 295 297 299 301 300 299 298 299 300 301 301 300 299 297 294 291 287 284 280 278 275 274 274 273 271 268 265 264 263 263 263 263 262 261 259 258 259 260 263 264 263 261 261 261 264 266 269 272 275 278 280 280 281 283 284 285 288 291 290 286 280 276 275 273 269 266 265 263 262 261 259 256 255 255 255 254 249 242 232 223 218 219 222 226 229
293 294 296 299 300 298 297 296 297 298 299 299 298 297 297 295 293 290 285 282 279 277 276 275 274 272 269 267 265 264 264 262 261 259 257 254 252 253 256 258 261 263 261 258 256 255 256 259 263 267 270 275 279 281 282 282 284 288 292 291 286 281 281 284 285 282 277 273 269 266 264 262 258 254 251 249 249 248 246 239 227 217 210 212 215 218
294 294 296 297 297 296 294 294 295 296 297 297 298 298 298 298 298 297 294 290 287 284 282 281 280 278 275 272 269 268 267 266 264 262 259 256 253 253 255 257 260 262 262 260 256 253 251 255 258 261 264 268 273 277 278 279 281 283 284 282 282 284 288 287 285 281 277 272 268 265 264 262 259 257 254 251 250 250 250 248 240 228 213 213 213 214
292 292 294 294 294 293 292 291 291 293 294 295 296 298 299 300 301 301 301 300 298 296 294 293 292 290 288 283 279 274 272 270 268 266 264 260 258 256 256 257 259 261 262 261 259 256 254 254 257 259 261 264 269 272 273 274 275 276 275 277 281 284 284 280 276 273 271 268 264 261 259 258 256 255 254 254 253 253 253 253 249 241 227 218 216 217
287 288 289 290 290 290 290 289 290 291 293 295 295 296 297 299 300 301 301 300 300 301 300 299 297 295 294 291 287 283 277 271 269 268 267 264 261 259 257 256 257 257 258 260 260 259 257 255 255 256 258 261 263 266 270 271 272 271 270 273 277 281 282 280 279 278 274 268 263 257 253 253 254 255 255 254 255 254 253 253 251 247 238 226 219 218
283 283 284 286 287 288 289 288 289 291 293 293 294 295 296 298 299 299 299 298 299 300 301 300 299 297 294 292 291 290 288 282 276 272 270 268 266 263 261 258 255 252 251 253 257 260 260 257 255 255 255 256 257 259 262 265 267 267 266 267 268 269 270 278 285 286 283 277 272 266 260 261 263 265 264 258 253 251 249 249 247 245 239 232 224 220
280 281 283 286 288 291 292 291 292 292 293 292 293 294 296 298 298 298 297 297 299 300 302 302 301 299 296 294 295 296 295 293 288 281 274 271 270 270 268 265 260 255 250 248 249 253 257 258 258 257 255 252 252 253 256 259 262 262 262 260 260 261 263 269 275 279 281 282 281 281 279 280 279 276 271 263 256 250 247 246 246 244 240 232 225 220
282 285 287 290 292 294 295 295 294 293 292 292 292 294 297 298 297 297 296 297 299 301 302 302 301 298 296 297 298 299 299 297 294 290 284 279 275 272 271 269 266 262 256 250 248 247 249 253 257 259 259 255 252 251 251 253 256 257 257 255 255 256 258 261 263 265 268 272 276 279 282 284 282 278 272 270 266 261 254 249 246 245 242 235 228 223
283 285 288 290 292 293 294 295 295 294 293 294 295 297 298 298 298 297 297 299 300 301 302 301 300 297 296 298 300 301 301 301 299 296 293 288 282 277 274 271 268 266 263 258 253 249 247 247 249 251 253 254 254 253 250 249 250 251 252 251 251 251 253 252 252 252 254 258 262 266 271 274 273 271 268 269 271 269 262 254 249 247 245 241 235 229
281 283 285 287 290 292 294 295 296 295 295 297 299 300 301 300 300 300 299 300 300 301 301 301 300 299 298 299 299 300 300 300 299 297 295 292 288 284 280 278 275 272 269 266 262 258 253 248 245 244 245 248 252 254 253 250 248 247 248 247 246 247 248 248 246 244 244 247 249 250 253 256 258 259 260 259 258 257 256 251 246 243 242 242 239 235
280 281 283 284 287 289 292 294 296 297 297 300 301 303 303 302 302 301 300 300 300 299 299 299 300 300 299 299 299 300 301 300 298 296 295 292 290 287 286 284 283 281 278 273 268 264 259 252 246 241 239 241 245 249 252 250 248 246 245 243 242 243 245 245 243 240 238 240 240 240 239 242 246 249 253 248 243 241 243 243 241 239 237 238 238 236
277 278 280 282 284 286 289 292 294 296 297 299 301 303 304 304 303 302 300 299 298 297 297 297 298 298 299 299 300 301 302 301 300 299 297 294 292 290 287 286 285 284 281 277 271 266 262 255 247 240 234 233 235 239 246 246 245 244 243 241 239 239 242 243 240 237 234 235 234 232 230 233 235 238 240 240 238 237 236 238 237 236 233 234 236 237
275 275 277 279 281 284 286 289 291 293 295 298 300 301 303 303 303 302 301 299 298 298 297 297 297 297 298 299 301 302 303 302 302 301 299 297 294 291 287 285 284 283 282 281 278 273 268 263 255 245 234 228 226 227 234 237 239 240 239 238 236 236 238 239 238 235 232 232 230 228 225 225 226 227 229 233 234 233 232 233 232 231 228 229 232 236